CW9259 Weather Reports


Display with metric or nautical units.
time (UTC)temp
F
wind
direction
speed
MPH
gust
MPH
rain 1hr
in
rain 24hr
in
rain mn
in
humidity
%
barometer
mb
20260906084559 81 72 2.0 11.0 0.00 0.00 0.00 57 1019.6
20260906083138 81 80 2.0 9.0 0.00 0.00 0.00 57 1019.6
20260906081558 81 130 6.0 11.0 0.00 0.00 0.00 58 1019.5
20260906080125 79 75 5.0 8.0 0.00 0.00 0.00 59 1019.4
20260906074557 78 342 2.0 4.0 0.00 0.00 0.00 61 1019.3
20260906073134 77 360 1.0 4.0 0.00 0.00 0.00 65 1019.2
20260906071557 75 10 2.0 4.0 0.00 0.00 0.00 68 1019.1
20260906070122 74 5 2.0 4.0 0.00 0.00 0.00 69 1019.2
20260906064557 73 34 2.0 5.0 0.00 0.00 0.00 70 1019.0
20260906063128 71 14 2.0 3.0 0.00 0.00 0.00 73 1018.9
20260906061559 70 355 2.0 4.0 0.00 0.00 0.00 75 1018.8
20260906060137 68 338 2.0 4.0 0.00 0.00 0.00 76 1018.7
20260906054611 67 328 2.0 5.0 0.00 0.00 0.00 78 1018.5
20260906053124 66 351 2.0 5.0 0.00 0.00 0.00 80 1018.4
20260906051559 65 5 2.0 5.0 0.00 0.00 0.00 80 1018.3
20260906050133 65 338 2.0 4.0 0.00 0.00 0.00 80 1018.1
20260906044557 65 323 3.0 4.0 0.00 0.00 0.00 79 1017.9
20260906043122 66 331 2.0 4.0 0.00 0.00 0.00 79 1017.7
20260906041559 66 299 2.0 3.0 0.00 0.00 0.00 80 1017.5
20260906040126 66 282 1.0 3.0 0.00 0.00 0.00 79 1017.4
20260906034605 67 288 0.0 4.0 0.00 0.00 0.00 78 1017.3
20260906033136 67 325 1.0 5.0 0.00 0.00 0.00 78 1017.1
20260906031558 67 343 3.0 6.0 0.00 0.00 0.00 79 1017.0
20260906030123 66 306 1.0 3.0 0.00 0.00 0.00 81 1017.0
20260906024558 66 269 1.0 4.0 0.00 0.00 0.00 80 1016.8
20260906023133 68 344 0.0 0.0 0.00 0.00 0.00 77 1016.6
20260906021601 69 305 0.0 4.0 0.00 0.00 0.00 75 1016.5
20260906020137 69 111 1.0 3.0 0.00 0.00 0.00 75 1016.6
20260906014558 69 102 2.0 6.0 0.00 0.00 0.00 74 1016.6
20260906013124 68 331 3.0 6.0 0.00 0.00 0.00 76 1016.7
20260906011557 68 263 2.0 4.0 0.00 0.00 0.00 77 1016.7
20260906010148 67 319 3.0 5.0 0.00 0.00 0.00 76 1016.7
20260906004615 67 213 1.0 3.0 0.00 0.00 0.00 78 1016.6
20260906003123 67 207 3.0 8.0 0.00 0.00 0.00 77 1016.5
20260906001604 66 317 0.0 2.0 0.00 0.00 0.00 79 1016.2
20260906000131 67 317 1.0 2.0 0.00 0.00 0.00 79 1016.2
20260905234557 67 317 1.0 2.0 0.00 0.00 0.00 78 1016.0
20260905233136 67 317 0.0 3.0 0.00 0.00 0.00 77 1016.1
20260905231557 67 317 1.0 3.0 0.00 0.00 0.00 77 1016.0
20260905230001 67 338 2.0 4.0 0.00 0.00 0.00 77 1016.0
20260905224557 67 338 2.0 3.0 0.00 0.00 0.00 77 1016.1
20260905223131 67 276 1.0 3.0 0.00 0.00 0.00 75 1016.1
20260905221601 68 276 0.0 2.0 0.00 0.00 0.00 75 1016.0
20260905220121 68 294 2.0 3.0 0.00 0.00 0.00 74 1016.0
20260905214557 70 331 1.0 4.0 0.00 0.00 0.00 70 1015.7
20260905213131 70 332 3.0 4.0 0.00 0.00 0.00 71 1015.7
20260905211606 69 349 3.0 5.0 0.00 0.00 0.00 71 1015.8
20260905210134 69 323 0.0 2.0 0.00 0.00 0.00 76 1015.8
20260905204600 70 323 1.0 2.0 0.00 0.00 0.00 75 1015.8
20260905203124 71 323 1.0 3.0 0.00 0.00 0.00 74 1015.6
20260905201557 71 329 1.0 4.0 0.00 0.00 0.00 73 1015.3
20260905200145 72 325 2.0 3.0 0.00 0.00 0.00 72 1015.1
20260905194600 73 327 2.0 4.0 0.00 0.00 0.00 71 1014.9
20260905193123 73 342 2.0 4.0 0.00 0.00 0.00 72 1014.7
20260905191557 73 288 1.0 4.0 0.00 0.00 0.00 74 1014.6
20260905190133 73 336 1.0 4.0 0.00 0.00 0.00 74 1014.4
20260905184607 74 311 1.0 4.0 0.00 0.00 0.00 72 1014.2
20260905183120 76 288 1.0 3.0 0.00 0.00 0.00 71 1013.9
20260905181557 77 288 0.0 3.0 0.00 0.00 0.00 70 1013.7
20260905180125 79 287 1.0 3.0 0.00 0.00 0.00 67 1013.5
20260905174603 81 207 0.0 2.0 0.00 0.00 0.00 66 1013.2
20260905173135 82 207 1.0 2.0 0.00 0.00 0.00 63 1013.2
20260905171558 84 207 0.0 2.0 0.00 0.00 0.00 61 1013.0
20260905170122 86 207 2.0 3.0 0.00 0.00 0.00 57 1013.0
20260905164559 89 124 0.0 2.0 0.00 0.00 0.00 51 1013.0
20260905163133 91 117 0.0 6.0 0.00 0.00 0.00 46 1013.1
20260905161558 91 64 1.0 3.0 0.00 0.00 0.00 47 1013.0
20260905160135 92 65 2.0 5.0 0.00 0.00 0.00 46 1012.9
20260905154603 92 117 1.0 4.0 0.00 0.00 0.00 47 1012.9
20260905153125 93 138 2.0 4.0 0.00 0.00 0.00 43 1012.9
20260905151620 93 119 1.0 6.0 0.00 0.00 0.00 43 1012.9
20260905150131 93 127 1.0 5.0 0.00 0.00 0.00 45 1013.0
20260905144558 93 144 0.0 7.0 0.00 0.00 0.00 42 1013.1
20260905143122 93 168 2.0 7.0 0.00 0.00 0.00 42 1013.1
20260905141558 93 96 4.0 9.0 0.00 0.00 0.00 41 1013.3
20260905140129 92 117 3.0 8.0 0.00 0.00 0.00 46 1013.2
20260905134559 92 64 3.0 6.0 0.00 0.00 0.00 44 1013.3
20260905133132 91 167 3.0 9.0 0.00 0.00 0.00 44 1013.4
20260905131606 91 121 3.0 9.0 0.00 0.00 0.00 45 1013.5
20260905130138 91 148 2.0 9.0 0.00 0.00 0.00 47 1013.6
20260905124558 90 148 4.0 11.0 0.00 0.00 0.00 47 1013.7
20260905123128 90 307 2.0 9.0 0.00 0.00 0.00 48 1013.7
20260905121558 90 123 5.0 10.0 0.00 0.00 0.00 50 1013.7
20260905120137 89 101 5.0 11.0 0.00 0.00 0.00 51 1013.8
20260905114558 89 103 6.0 11.0 0.00 0.00 0.00 50 1013.9
20260905113125 88 137 4.0 9.0 0.00 0.00 0.00 53 1013.9
20260905111601 88 124 5.0 11.0 0.00 0.00 0.00 52 1013.9
20260905110129 89 142 2.0 10.0 0.00 0.00 0.00 52 1014.0
20260905104559 88 109 5.0 10.0 0.00 0.00 0.00 52 1014.2
20260905103141 87 121 2.0 9.0 0.00 0.00 0.00 54 1014.3
20260905101559 87 128 4.0 9.0 0.00 0.00 0.00 53 1014.2
20260905100128 86 177 3.0 9.0 0.00 0.00 0.00 54 1014.4
20260905094559 86 114 4.0 8.0 0.00 0.00 0.00 56 1014.5
20260905093138 84 113 3.0 8.0 0.00 0.00 0.00 57 1014.4
20260905091603 83 162 4.0 8.0 0.00 0.00 0.00 61 1014.5
20260905090128 81 87 2.0 8.0 0.00 0.00 0.00 66 1014.5